| time (UTC) | temp F | wind direction | speed knots | gust knots | rain 1hr in | rain 24hr in | rain mn in | humidity % | barometer mb |
| 20260506202003 | 62 | 185 | 7.8 | 16.5 | 0.00 | 0.00 | 0.00 | 67 | 1009.9 |
| 20260506200003 | 62 | 182 | 7.8 | 15.6 | 0.00 | 0.00 | 0.00 | 65 | 1010.0 |
| 20260506194003 | 63 | 177 | 7.8 | 18.2 | 0.00 | 0.00 | 0.00 | 64 | 1009.9 |
| 20260506192003 | 63 | 185 | 6.1 | 14.8 | 0.00 | 0.00 | 0.00 | 62 | 1010.0 |
| 20260506190003 | 64 | 195 | 7.8 | 15.6 | 0.00 | 0.00 | 0.00 | 61 | 1009.8 |
| 20260506184003 | 64 | 186 | 7.0 | 16.5 | 0.00 | 0.00 | 0.00 | 60 | 1009.4 |
| 20260506182003 | 65 | 189 | 6.1 | 16.5 | 0.00 | 0.00 | 0.00 | 59 | 1009.5 |
| 20260506180004 | 66 | 176 | 4.3 | 11.3 | 0.00 | 0.00 | 0.00 | 58 | 1009.6 |
| 20260506174003 | 67 | 171 | 6.1 | 14.8 | 0.00 | 0.00 | 0.00 | 56 | 1009.4 |
| 20260506172003 | 68 | 176 | 7.8 | 19.1 | 0.00 | 0.00 | 0.00 | 55 | 1009.6 |
| 20260506170003 | 68 | 148 | 6.1 | 16.5 | 0.00 | 0.00 | 0.00 | 54 | 1009.4 |
| 20260506164003 | 69 | 155 | 6.1 | 15.6 | 0.00 | 0.00 | 0.00 | 53 | 1009.7 |
| 20260506162003 | 69 | 195 | 6.1 | 16.5 | 0.00 | 0.00 | 0.00 | 53 | 1010.1 |
| 20260506160003 | 68 | 149 | 6.1 | 15.6 | 0.00 | 0.00 | 0.00 | 54 | 1010.6 |
| 20260506154003 | 69 | 190 | 8.7 | 19.1 | 0.00 | 0.00 | 0.00 | 53 | 1010.8 |
| 20260506152003 | 69 | 177 | 8.7 | 19.1 | 0.00 | 0.00 | 0.00 | 54 | 1010.8 |
| 20260506150003 | 68 | 185 | 7.0 | 16.5 | 0.00 | 0.00 | 0.00 | 56 | 1010.7 |
| 20260506144003 | 68 | 182 | 7.0 | 15.6 | 0.00 | 0.00 | 0.00 | 58 | 1010.9 |
| 20260506040545 | 51 | 281 | 1.7 | 5.2 | 0.00 | 0.00 | 0.00 | 85 | 1011.1 |
| 20260506034545 | 51 | 335 | 0.0 | 0.9 | 0.00 | 0.00 | 0.00 | 84 | 1011.1 |
| 20260506032545 | 51 | 297 | 0.9 | 2.6 | 0.00 | 0.00 | 0.00 | 82 | 1011.1 |
| 20260506030545 | 51 | 317 | 0.9 | 2.6 | 0.00 | 0.00 | 0.00 | 82 | 1011.4 |
| 20260506024545 | 52 | 336 | 0.9 | 2.6 | 0.00 | 0.00 | 0.00 | 81 | 1010.9 |
| 20260506022545 | 52 | 280 | 1.7 | 3.5 | 0.00 | 0.00 | 0.00 | 80 | 1010.7 |
| 20260506020545 | 53 | 315 | 0.9 | 2.6 | 0.00 | 0.00 | 0.00 | 78 | 1010.9 |
| 20260506014545 | 54 | 277 | 1.7 | 5.2 | 0.00 | 0.00 | 0.00 | 77 | 1010.7 |
| 20260506012545 | 54 | 304 | 0.9 | 2.6 | 0.00 | 0.00 | 0.00 | 77 | 1010.7 |
| 20260506010545 | 54 | 262 | 1.7 | 5.2 | 0.00 | 0.00 | 0.00 | 75 | 1010.5 |
| 20260506004545 | 55 | 195 | 3.5 | 7.0 | 0.00 | 0.00 | 0.00 | 74 | 1010.6 |
| 20260506002545 | 55 | 207 | 2.6 | 7.8 | 0.00 | 0.00 | 0.00 | 74 | 1010.6 |